CZ-6A DEB, 56273

Orbit data source: Space-Track

CZ-6A DEB, 56273 is space debris in SSO originally from a launch on Fri, 11 Nov 2022 UTC launched from the Taiyaun Space Center, China (TSC). Debris objects in space refer to the collection of defunct objects orbiting the Earth. Examples of debris include non-operational satellites, rocket bodies, and fragments generated from explosions, collisions, or faulty payload assembly.

Loading next visibility...
Identifier
56273, 2022-151ACR
Orbit
SSO
Country
Flag of CNCN / PRC
Related business
Manufacturer
SAST
Mission
Spacecraft
Bus & Motor
Unknown
Mass
Unknown
Launch date (UTC)
2022-11-11 (4 years ago)
Launch vehicle
Unknown
Launch site
Taiyaun Space Center, China (TSC)
Object type
Payload
Rocket body
Debris
Shape & HBR
Unknown shape, 0.1 m
Radar Cross Section
Small (<0.1 m²)

Expand to show TLE details & history
Last TLE update: 14 hours ago

TLE from 14 hours ago
0 CZ-6A DEB
1 56273U 22151ACR 26263.07372890  .00002031  00000-0  37421-3 0  9995
2 56273  98.4775 309.9299 0121842 332.5776  26.9028 14.62054370189262
Epoch: 2026-09-20T01:46Z
TLE epoch observation values (Epoch: 2026-09-20T01:46:10.176Z)
Latitude
-0.00004°
Longitude
-75.58563°
Altitude
612.969 km
Speed
7.593 km/s
True Right ascension
20h 39m 43s
True Declination
0° 00' 00"
Sunlit
Object was in full shadow at epoch
Visualization orbit readout
Latitude
Unknown
Longitude
Unknown
Altitude
Unknown
Speed
Unknown
Apparent Right ascension
Unknown
Apparent Declination
Unknown
Sunlit
N/A
Visualization observer readout
Local Sidereal Time
08:49:13
Azimuth
Unknown
Elevation
Unknown
Doppler factor
Unknown
Orbital elements
Apogee altitude
769.681 km
Perigee altitude
597.597 km
Semi-major axis
7,061.776 km
Eccentricity
0.01218
Inclination
98.4775°
RAAN
309.9299°
Arg. of periapsis
332.5776°
True anomaly
27.54323°
Mean anomaly
26.9028°
Eccentric anomaly
27.22214°
Mean motion
3.6574 °/min
Orbital period
98.43 mins
BSTAR
0.00037421
Loading maneuver chart data...
Computing Atmospheric mass density...

Documentation

Showing up to 5 results
|